World > North America > United States > Massachusetts   City of Holyoke, Massachusetts

Hourly Holyoke, MA Regional Weather

Feedback E-mail the Weather

Quick WX

Holyoke, MA Weather Maps

°F °C°F °C
Holyoke Weather Map
UTC Time: 7/7/2022, 04:26
Your Time:

Holyoke, MA Regional Weather

Expires:202207070500;;877546
ASUS41 KOKX 070414
RWROKX

Regional Weather Roundup
National Weather Service New York NY
1200 AM EDT THU JUL 07 2022

Note: "FAIR" indicates few or no clouds below 12,000 feet with no
significant weather and/or obstructions to visibility.


CTZ002-004>006-009-010-012-RIZ004-006-007-MAZ004-011-015-070500-
Southern New England

 In CT
  
CITY           SKY/WX    TMP DP  RH WIND       PRES   REMARKS
Bradley Intl   MOCLDY    66  56  70 N3        29.98R                  
Hartford       PTCLDY    67  60  78 CALM      29.97R                  
Danbury        MOCLDY    69  62  78 CALM      29.99R                  
Wtrbury/Oxford MOCLDY    70  57  63 E7        30.00R                  
Norwalk Harbor NOT AVBL                                               
Bridgeport     PTCLDY    74  60  61 NE6       29.96R                  
Meriden        PTCLDY    67  57  70 CALM      29.97R                  
New Haven      PTCLDY    72  60  66 CALM      29.96R                  
Chester        CLOUDY    70  59  68 N3        29.98S                  
Groton         MOCLDY    69  61  75 CALM      29.96S                  
Willimantic    PTCLDY    62  59  90 N3        29.99R                  

 In RI
  
CITY           SKY/WX    TMP DP  RH WIND       PRES   REMARKS
Providence     PTCLDY    69  57  65 CALM      29.98R                  
Block Island   CLEAR     66  61  84 E5        29.97S                  
Westerly       MOCLDY    66  62  87 CALM      29.97S                  
 
In MA
  
CITY           SKY/WX    TMP DP  RH WIND       PRES   REMARKS
Boston         MOCLDY    71  56  58 CALM      29.98R                  
Worcester      CLEAR     67  54  63 N7        30.01R                  
Westfield      CLEAR     62  57  83 N5        29.99R                  
Provincetown   CLEAR     59  56  89 CALM      29.97R                  
Nantucket      PTCLDY    65  61  87 E5        29.96R                  
$$


SKY/WX - Weather  TMP - Temperature  DP - Dew Point  RH - Humidity
WIND - Wind Direction/Speed PRES - Barometric Pressure VSB - Visibility
WCI - Wind Chill Index E13G22 Wind - East Wind 13 mph/Gusts of 22 mph

Trending Headlines

Holyoke Radar Loop



Holyoke Quick Facts


National Two Day Weather Forecast


E-mail the Holyoke Weather Forecast

Voice your opinion or tell us about page issues...